Location: Lussas
(44.6119°N, 4.4726°E)
Time: 16:17:50
(UTC+00:00)

Cosmos 2327 Rocket - Pass Details

Date: 26 November 2020
Orbit: 945 x 1007 km, 83.0° (Epoch: 27 January)

Event Time Altitude Azimuth Distance (km) Brightness Sun altitude
Rises 05:54:38 0° 190° (S) 3,621 7.6 -10.3°
Reaches altitude 10° 05:57:07 10° 191° (SSW) 2,672 6.9 -9.9°
Maximum altitude 06:03:14 79° 278° (W) 971 4.4 -8.9°
Drops below altitude 10° 06:09:21 10° 6° (N) 2,675 6.6 -7.9°
Sets 06:11:51 0° 8° (N) 3,624 7.3 -7.5°
